| time (UTC) | temp F | wind direction | speed knots | gust knots | rain 1hr in | rain 24hr in | rain mn in | humidity % | barometer mb |
| 20260504081509 | 38 | 284 | 0.0 | 0.9 | 0.00 | 0.00 | 0.00 | 79 | 1015.0 |
| 20260504044543 | 43 | 284 | 0.0 | 0.0 | 0.00 | 0.00 | 0.00 | 71 | 1014.7 |
| 20260504043043 | 43 | 284 | 0.0 | 0.0 | 0.00 | 0.00 | 0.00 | 70 | 1014.8 |
| 20260504041542 | 44 | 284 | 0.0 | 0.0 | 0.00 | 0.00 | 0.00 | 69 | 1014.8 |
| 20260504040040 | 44 | 284 | 0.0 | 0.0 | 0.00 | 0.00 | 0.00 | 68 | 1014.7 |
| 20260504034544 | 45 | 284 | 0.0 | 0.0 | 0.00 | 0.00 | 0.00 | 67 | 1014.7 |
| 20260504033034 | 45 | 284 | 0.0 | 0.0 | 0.00 | 0.00 | 0.00 | 66 | 1014.7 |
| 20260504031534 | 46 | 284 | 0.0 | 0.0 | 0.00 | 0.00 | 0.00 | 64 | 1014.5 |
| 20260504030036 | 47 | 284 | 0.0 | 0.0 | 0.00 | 0.00 | 0.00 | 63 | 1014.4 |
| 20260504024534 | 48 | 284 | 0.0 | 0.0 | 0.00 | 0.00 | 0.00 | 62 | 1014.4 |
| 20260504023032 | 49 | 284 | 0.0 | 0.0 | 0.00 | 0.00 | 0.00 | 57 | 1014.4 |
| 20260504021532 | 50 | 284 | 0.0 | 0.0 | 0.00 | 0.00 | 0.00 | 56 | 1014.5 |
| 20260504020037 | 51 | 284 | 0.0 | 1.7 | 0.00 | 0.00 | 0.00 | 54 | 1014.4 |
| 20260504014532 | 52 | 284 | 0.0 | 0.9 | 0.00 | 0.00 | 0.00 | 53 | 1014.3 |
| 20260504013037 | 53 | 284 | 0.0 | 0.9 | 0.00 | 0.00 | 0.00 | 48 | 1014.2 |
| 20260504011531 | 54 | 284 | 0.0 | 0.9 | 0.00 | 0.00 | 0.00 | 47 | 1014.2 |
| 20260504010029 | 55 | 284 | 0.9 | 2.6 | 0.00 | 0.00 | 0.00 | 46 | 1014.1 |
| 20260504004529 | 55 | 284 | 0.0 | 1.7 | 0.00 | 0.00 | 0.00 | 44 | 1014.0 |
| 20260504003028 | 56 | 284 | 0.0 | 2.6 | 0.00 | 0.00 | 0.00 | 43 | 1013.8 |
| 20260504001534 | 57 | 286 | 0.9 | 4.3 | 0.00 | 0.00 | 0.00 | 42 | 1013.6 |
| 20260504000027 | 58 | 292 | 1.7 | 5.2 | 0.00 | 0.00 | 0.00 | 40 | 1013.4 |
| 20260503234529 | 59 | 273 | 2.6 | 8.7 | 0.00 | 0.00 | 0.00 | 39 | 1013.2 |
| 20260503233026 | 60 | 285 | 2.6 | 8.7 | 0.00 | 0.00 | 0.00 | 38 | 1013.2 |
| 20260503231528 | 61 | 311 | 6.1 | 9.6 | 0.00 | 0.00 | 0.00 | 37 | 1013.1 |
| 20260503230037 | 61 | 289 | 6.1 | 13.0 | 0.00 | 0.00 | 0.00 | 35 | 1013.1 |
| 20260503224523 | 62 | 334 | 5.2 | 13.0 | 0.00 | 0.00 | 0.00 | 35 | 1013.2 |
| 20260503223024 | 62 | 265 | 5.2 | 13.0 | 0.00 | 0.00 | 0.00 | 35 | 1013.1 |
| 20260503221524 | 63 | 324 | 5.2 | 10.4 | 0.00 | 0.00 | 0.00 | 34 | 1013.1 |
| 20260503220022 | 63 | 269 | 5.2 | 10.4 | 0.00 | 0.00 | 0.00 | 36 | 1012.9 |
| 20260503214535 | 63 | 261 | 4.3 | 12.2 | 0.00 | 0.00 | 0.00 | 36 | 1013.1 |
| 20260503213021 | 63 | 290 | 7.0 | 13.9 | 0.00 | 0.00 | 0.00 | 34 | 1013.1 |
| 20260503211520 | 64 | 292 | 3.5 | 12.2 | 0.00 | 0.00 | 0.00 | 35 | 1013.0 |
| 20260503210020 | 63 | 271 | 5.2 | 15.6 | 0.00 | 0.00 | 0.00 | 34 | 1013.1 |
| 20260503204519 | 63 | 294 | 9.6 | 13.0 | 0.00 | 0.00 | 0.00 | 34 | 1013.1 |
| 20260503203022 | 64 | 302 | 7.0 | 13.0 | 0.00 | 0.00 | 0.00 | 33 | 1013.1 |
| 20260503201517 | 63 | 314 | 7.8 | 17.4 | 0.00 | 0.00 | 0.00 | 36 | 1013.1 |
| 20260503200017 | 63 | 291 | 9.6 | 17.4 | 0.00 | 0.00 | 0.00 | 34 | 1013.5 |
| 20260503194516 | 63 | 334 | 7.0 | 13.0 | 0.00 | 0.00 | 0.00 | 33 | 1013.7 |
| 20260503193028 | 62 | 271 | 5.2 | 13.0 | 0.00 | 0.00 | 0.00 | 35 | 1013.8 |
| 20260503191532 | 62 | 287 | 4.3 | 13.0 | 0.00 | 0.00 | 0.00 | 36 | 1014.0 |
| 20260503190024 | 61 | 342 | 4.3 | 17.4 | 0.00 | 0.00 | 0.00 | 39 | 1014.0 |
| 20260503184512 | 63 | 282 | 4.3 | 11.3 | 0.00 | 0.00 | 0.00 | 34 | 1014.2 |
| 20260503183010 | 61 | 314 | 7.0 | 14.8 | 0.00 | 0.00 | 0.00 | 36 | 1014.4 |
| 20260503181509 | 61 | 6 | 2.6 | 13.0 | 0.00 | 0.00 | 0.00 | 38 | 1014.5 |
| 20260503180007 | 58 | 294 | 5.2 | 13.0 | 0.00 | 0.00 | 0.00 | 41 | 1014.5 |
| 20260503174506 | 57 | 280 | 6.1 | 11.3 | 0.00 | 0.00 | 0.00 | 41 | 1014.8 |
| 20260503173005 | 59 | 301 | 6.1 | 12.2 | 0.00 | 0.00 | 0.00 | 40 | 1014.8 |
| 20260503171504 | 58 | 334 | 8.7 | 15.6 | 0.00 | 0.00 | 0.00 | 39 | 1014.9 |
| 20260503160108 | 57 | 319 | 6.1 | 13.9 | 0.00 | 0.00 | 0.00 | 39 | 1015.6 |